Location: Peebles
(55.6412°N, 3.1714°W)
Time: 15:37:43
(UTC+01:00)

Kosmos-400 - Visible Passes

Search period start: 17 July 2024 00:00
Search period end: 27 July 2024 00:00
Orbit: 987 x 996 km, 65.8° (Epoch: 16 July)

Date Brightness Start Highest point End Pass type
(mag) Time Alt. Az. Time Alt. Az. Time Alt. Az.
17 Jul 8.8 22:37:56 10° NW 22:44:23 68° SW 22:50:47 10° SSE visible
18 Jul 10.3 00:27:05 10° WNW 00:31:22 19° WSW 00:35:38 10° SSW visible
18 Jul 9.4 23:08:43 10° NW 23:14:44 42° WSW 23:20:43 10° S visible
19 Jul 10.1 23:39:50 10° WNW 23:44:51 24° WSW 23:49:51 10° SSW visible
20 Jul 9.1 22:21:47 10° NW 22:28:03 52° WSW 22:34:16 10° SSE visible
21 Jul 10.6 00:11:56 10° WNW 00:14:42 13° WSW 00:17:28 10° SW visible
21 Jul 9.9 22:52:44 10° NW 22:58:16 31° WSW 23:03:48 10° S visible
22 Jul 10.6 23:24:13 10° WNW 23:28:15 17° WSW 23:32:16 10° SW visible
24 Jul 10.4 22:36:53 10° WNW 22:41:44 23° WSW 22:46:33 10° SSW visible
25 Jul 10.9 23:09:18 10° W 23:11:34 12° W 23:13:48 10° WSW visible
